RYR85KM EGGW-LEMI

Flight info

Callsign RYR85KM
Flight time 2h 15m
Altitude 33000
Route RODNI N27 ICTAM Q63 CPT N859 VAPID UN859 SOPIL DCT BALAN DCT LMG DCT PIMQO DCT AGN DCT ANETO DCT POSSY DCT XIMPE DCT RIMES N860 VLC L34 ALT
Aircraft B38M/M-SDE1FGHILORVWXY/HB1

Departure

Time 2026-04-15 13:35
Airport London Luton Airport (EGGW)

Arrival

Time 2026-04-15 15:51
Airport Region of Murcia International Airport (LEMI)
Time Latitude Longitude Altitude Speed Heading
2026-04-15 13:15 51.88021 -0.37831 526 ft 0 kts 128°
2026-04-15 13:26 51.88035 -0.37859 526 ft 4 kts 128°
2026-04-15 13:27 51.88046 -0.37889 526 ft 4 kts 78°
2026-04-15 13:27 51.88036 -0.37912 526 ft 3 kts 38°
2026-04-15 13:27 51.88021 -0.37930 526 ft 0 kts 38°
2026-04-15 13:30 51.88024 -0.37926 526 ft 4 kts 38°
2026-04-15 13:31 51.88072 -0.37866 526 ft 11 kts 38°
2026-04-15 13:31 51.88135 -0.37775 526 ft 13 kts 50°
2026-04-15 13:31 51.88190 -0.37638 522 ft 17 kts 59°
2026-04-15 13:31 51.88204 -0.37453 519 ft 14 kts 75°
2026-04-15 13:32 51.88234 -0.37299 519 ft 15 kts 89°
2026-04-15 13:32 51.88155 -0.37205 516 ft 18 kts 161°
2026-04-15 13:32 51.88012 -0.37129 511 ft 25 kts 163°
2026-04-15 13:32 51.87837 -0.37036 515 ft 26 kts 162°
2026-04-15 13:33 51.87681 -0.36954 526 ft 15 kts 161°
2026-04-15 13:33 51.87648 -0.36917 528 ft 3 kts 121°
2026-04-15 13:33 51.87652 -0.36838 527 ft 12 kts 73°
2026-04-15 13:33 51.87686 -0.36636 524 ft 25 kts 75°
2026-04-15 13:34 51.87744 -0.36309 520 ft 35 kts 76°
2026-04-15 13:34 51.87785 -0.36044 520 ft 12 kts 92°
2026-04-15 13:34 51.87725 -0.35945 518 ft 14 kts 160°
2026-04-15 13:34 51.87629 -0.35925 518 ft 12 kts 214°
2026-04-15 13:35 51.87598 -0.36059 518 ft 25 kts 254°
2026-04-15 13:35 51.87472 -0.36794 526 ft 109 kts 254°
2026-04-15 13:35 51.87201 -0.38349 603 ft 169 kts 253°
2026-04-15 13:35 51.86841 -0.40245 1383 ft 181 kts 246°
2026-04-15 13:36 51.86168 -0.42002 2243 ft 190 kts 219°
2026-04-15 13:36 51.84957 -0.43214 2625 ft 220 kts 207°
2026-04-15 13:36 51.83567 -0.44341 3633 ft 220 kts 207°
2026-04-15 13:36 51.82197 -0.45584 4414 ft 233 kts 216°
2026-04-15 13:37 51.81180 -0.47598 5136 ft 238 kts 241°
2026-04-15 13:37 51.80766 -0.50243 6086 ft 249 kts 258°
2026-04-15 13:37 51.80435 -0.52983 7018 ft 249 kts 248°
2026-04-15 13:37 51.79924 -0.55681 7952 ft 253 kts 248°
2026-04-15 13:38 51.79428 -0.58426 8878 ft 257 kts 249°
2026-04-15 13:38 51.78945 -0.61237 9766 ft 262 kts 249°
2026-04-15 13:38 51.78458 -0.64113 10478 ft 273 kts 249°
2026-04-15 13:38 51.77945 -0.67175 10894 ft 292 kts 249°
2026-04-15 13:39 51.77406 -0.70414 11465 ft 306 kts 250°
2026-04-15 13:39 51.76854 -0.73739 12306 ft 306 kts 249°
2026-04-15 13:39 51.76279 -0.77084 13066 ft 310 kts 245°
2026-04-15 13:39 51.75192 -0.80013 13818 ft 305 kts 224°
2026-04-15 13:40 51.73721 -0.82509 14573 ft 309 kts 223°
2026-04-15 13:40 51.72223 -0.85011 15356 ft 311 kts 223°
2026-04-15 13:40 51.70698 -0.87515 16073 ft 315 kts 222°
2026-04-15 13:40 51.69152 -0.90028 16830 ft 316 kts 222°
2026-04-15 13:41 51.67592 -0.92546 17513 ft 319 kts 221°
2026-04-15 13:41 51.66010 -0.95088 18137 ft 323 kts 221°
2026-04-15 13:41 51.64411 -0.97654 18790 ft 326 kts 221°
2026-04-15 13:41 51.62799 -1.00236 19421 ft 328 kts 221°
2026-04-15 13:42 51.61173 -1.02837 20057 ft 330 kts 221°
2026-04-15 13:42 51.59538 -1.05449 20639 ft 333 kts 221°
2026-04-15 13:42 51.57886 -1.08087 21235 ft 336 kts 221°
2026-04-15 13:42 51.56222 -1.10738 21817 ft 338 kts 220°
2026-04-15 13:43 51.54545 -1.13409 22373 ft 341 kts 220°
2026-04-15 13:43 51.52854 -1.16093 22909 ft 343 kts 219°
2026-04-15 13:43 51.50925 -1.18276 23415 ft 339 kts 203°
2026-04-15 13:43 51.48655 -1.19275 23882 ft 342 kts 186°
2026-04-15 13:44 51.46267 -1.19035 24390 ft 349 kts 171°
2026-04-15 13:44 51.43981 -1.17779 24895 ft 355 kts 163°
2026-04-15 13:44 51.41690 -1.16265 25337 ft 358 kts 162°
2026-04-15 13:44 51.39391 -1.14669 25763 ft 362 kts 162°
2026-04-15 13:45 51.37083 -1.13027 26200 ft 364 kts 162°
2026-04-15 13:45 51.34769 -1.11357 26619 ft 366 kts 161°
2026-04-15 13:45 51.32407 -1.09639 27024 ft 368 kts 161°
2026-04-15 13:47 51.15761 -0.97497 29540 ft 384 kts 162°
2026-04-15 13:47 51.13319 -0.95724 29878 ft 387 kts 162°
2026-04-15 13:47 51.10867 -0.93944 30236 ft 388 kts 162°
2026-04-15 13:48 51.08413 -0.92165 30617 ft 388 kts 162°
2026-04-15 13:48 51.05957 -0.90388 31021 ft 387 kts 162°
2026-04-15 13:48 51.03508 -0.88616 31408 ft 387 kts 162°
2026-04-15 13:48 51.01059 -0.86848 31808 ft 386 kts 162°
2026-04-15 13:49 50.98615 -0.85084 32172 ft 386 kts 162°
2026-04-15 13:49 50.96174 -0.83326 32531 ft 386 kts 162°
2026-04-15 13:49 50.93732 -0.81568 32898 ft 385 kts 162°
2026-04-15 13:49 50.91283 -0.79807 33036 ft 387 kts 162°
2026-04-15 13:50 50.86413 -0.76310 33054 ft 384 kts 162°
2026-04-15 13:50 50.82602 -0.72526 33055 ft 392 kts 154°
2026-04-15 13:51 50.78083 -0.67715 33067 ft 392 kts 154°
2026-04-15 13:51 50.73564 -0.62899 33061 ft 392 kts 154°
2026-04-15 13:52 50.69034 -0.58078 33073 ft 393 kts 154°
2026-04-15 13:52 50.64503 -0.53265 33073 ft 392 kts 154°
2026-04-15 13:53 50.59971 -0.48467 33073 ft 393 kts 154°
2026-04-15 13:53 50.55436 -0.43677 33073 ft 392 kts 154°
2026-04-15 13:54 50.50904 -0.38901 33073 ft 392 kts 154°
2026-04-15 13:54 50.46368 -0.34133 33073 ft 392 kts 154°
2026-04-15 13:55 50.41834 -0.29377 33073 ft 392 kts 154°
2026-04-15 13:55 50.37296 -0.24629 33080 ft 392 kts 154°
2026-04-15 13:56 50.32753 -0.19887 33082 ft 392 kts 154°
2026-04-15 13:56 50.28215 -0.15160 33082 ft 392 kts 154°
2026-04-15 13:57 50.23711 -0.10479 33090 ft 392 kts 154°
2026-04-15 13:57 50.19039 -0.06287 33100 ft 381 kts 163°
2026-04-15 13:58 50.14174 -0.02902 33097 ft 383 kts 163°
2026-04-15 13:58 50.09271 0.00306 33091 ft 376 kts 171°
2026-04-15 13:59 50.04161 0.02297 33090 ft 385 kts 171°
2026-04-15 13:59 49.98904 0.04377 33105 ft 392 kts 171°
2026-04-15 14:00 49.93615 0.06458 33111 ft 391 kts 171°
2026-04-15 14:00 49.88329 0.08532 33118 ft 392 kts 171°
2026-04-15 14:01 49.80389 0.11638 33126 ft 392 kts 171°
2026-04-15 14:02 49.75091 0.13704 33129 ft 393 kts 171°
2026-04-15 14:02 49.69788 0.15768 33128 ft 393 kts 171°
2026-04-15 14:03 49.64490 0.17904 33128 ft 394 kts 171°
2026-04-15 14:03 49.59178 0.20043 33127 ft 395 kts 171°
2026-04-15 14:04 49.53857 0.22180 33128 ft 396 kts 171°
2026-04-15 14:04 49.48524 0.24316 33111 ft 396 kts 171°
2026-04-15 14:05 49.43181 0.26451 33114 ft 398 kts 171°
2026-04-15 14:05 49.37816 0.28590 33116 ft 398 kts 171°
2026-04-15 14:06 49.32444 0.30728 33129 ft 400 kts 171°
2026-04-15 14:06 49.27110 0.32979 33131 ft 401 kts 170°
2026-04-15 14:07 49.21723 0.35250 33128 ft 402 kts 170°
2026-04-15 14:07 49.16316 0.37520 33131 ft 403 kts 170°
2026-04-15 14:08 49.10901 0.39789 33138 ft 404 kts 170°
2026-04-15 14:08 49.05477 0.42056 33136 ft 405 kts 170°
2026-04-15 14:09 49.00038 0.44326 33139 ft 406 kts 170°
2026-04-15 14:09 48.94589 0.46593 33146 ft 406 kts 170°
2026-04-15 14:10 48.89129 0.48860 33145 ft 407 kts 170°
2026-04-15 14:10 48.83661 0.51126 33146 ft 408 kts 170°
2026-04-15 14:11 48.78180 0.53357 33149 ft 408 kts 171°
2026-04-15 14:11 48.72685 0.55511 33151 ft 408 kts 171°
2026-04-15 14:12 48.67189 0.57671 33169 ft 409 kts 171°
2026-04-15 14:12 48.61675 0.59833 33153 ft 409 kts 171°
2026-04-15 14:13 48.56170 0.61987 33158 ft 409 kts 171°
2026-04-15 14:13 48.50657 0.64185 33160 ft 410 kts 170°
2026-04-15 14:14 48.45148 0.66428 33159 ft 410 kts 170°
2026-04-15 14:14 48.39684 0.68643 33156 ft 410 kts 170°
2026-04-15 14:15 48.34163 0.70874 33151 ft 411 kts 170°
2026-04-15 14:15 48.28641 0.73100 33151 ft 411 kts 170°
2026-04-15 14:16 48.23114 0.75299 33166 ft 411 kts 171°
2026-04-15 14:16 48.17587 0.77476 33153 ft 411 kts 171°
2026-04-15 14:17 48.12052 0.79653 33155 ft 412 kts 171°
2026-04-15 14:17 48.06509 0.81829 33153 ft 412 kts 171°
2026-04-15 14:18 48.00968 0.83999 33172 ft 412 kts 171°
2026-04-15 14:18 47.95413 0.86170 33163 ft 416 kts 170°
2026-04-15 14:19 47.89782 0.88365 33180 ft 419 kts 170°
2026-04-15 14:19 47.84138 0.90561 33172 ft 419 kts 170°
2026-04-15 14:20 47.78490 0.92752 33182 ft 420 kts 170°
2026-04-15 14:20 47.72833 0.94940 33178 ft 420 kts 170°
2026-04-15 14:21 47.67163 0.97130 33183 ft 421 kts 170°
2026-04-15 14:21 47.61484 0.99317 33180 ft 422 kts 170°
2026-04-15 14:22 47.55795 1.01503 33188 ft 423 kts 170°
2026-04-15 14:22 47.50098 1.03687 33181 ft 423 kts 170°
2026-04-15 14:23 47.44431 1.05854 33192 ft 424 kts 171°
2026-04-15 14:23 47.41547 1.06377 33178 ft 413 kts 186°
2026-04-15 14:23 47.38674 1.06257 33181 ft 416 kts 184°
2026-04-15 14:24 47.32883 1.06195 33196 ft 416 kts 185°
2026-04-15 14:24 47.27090 1.06071 33194 ft 416 kts 185°
2026-04-15 14:25 47.21298 1.05936 33192 ft 417 kts 185°
2026-04-15 14:25 47.15492 1.05801 33199 ft 417 kts 185°
2026-04-15 14:26 47.09682 1.05665 33204 ft 418 kts 185°
2026-04-15 14:26 47.03866 1.05530 33202 ft 418 kts 185°
2026-04-15 14:27 46.98053 1.05279 33201 ft 418 kts 186°
2026-04-15 14:27 46.92225 1.05031 33205 ft 419 kts 186°
2026-04-15 14:28 46.86393 1.04786 33201 ft 419 kts 186°
2026-04-15 14:28 46.80555 1.04541 33209 ft 420 kts 186°
2026-04-15 14:29 46.74704 1.04295 33211 ft 421 kts 186°
2026-04-15 14:29 46.68850 1.04051 33210 ft 421 kts 186°
2026-04-15 14:30 46.62990 1.03807 33210 ft 422 kts 186°
2026-04-15 14:30 46.57123 1.03564 33210 ft 422 kts 186°
2026-04-15 14:31 46.51248 1.03355 33217 ft 423 kts 184°
2026-04-15 14:31 46.45352 1.03307 33220 ft 424 kts 184°
2026-04-15 14:32 46.39459 1.03239 33225 ft 424 kts 185°
2026-04-15 14:32 46.33551 1.03169 33218 ft 424 kts 185°
2026-04-15 14:33 46.27649 1.03099 33226 ft 425 kts 185°
2026-04-15 14:33 46.21774 1.03030 33228 ft 425 kts 184°
2026-04-15 14:34 46.15861 1.02960 33230 ft 425 kts 184°
2026-04-15 14:34 46.09942 1.02890 33226 ft 425 kts 184°
2026-04-15 14:35 46.04023 1.02820 33235 ft 425 kts 184°
2026-04-15 14:35 45.98101 1.02750 33235 ft 426 kts 184°
2026-04-15 14:36 45.92134 1.02680 33234 ft 432 kts 184°
2026-04-15 14:36 45.86117 1.02610 33234 ft 432 kts 184°
2026-04-15 14:37 45.80099 1.02898 33233 ft 437 kts 172°
2026-04-15 14:37 45.74266 1.04455 33225 ft 438 kts 173°
2026-04-15 14:38 45.68263 1.05992 33236 ft 439 kts 173°
2026-04-15 14:38 45.62250 1.07535 33228 ft 439 kts 173°
2026-04-15 14:39 45.56234 1.09076 33228 ft 440 kts 173°
2026-04-15 14:39 45.51404 1.10310 33232 ft 440 kts 173°
2026-04-15 14:40 45.45374 1.11849 33225 ft 440 kts 173°
2026-04-15 14:40 45.39344 1.13384 33223 ft 440 kts 173°
2026-04-15 14:41 45.33310 1.14917 33217 ft 441 kts 173°
2026-04-15 14:41 45.27268 1.16448 33220 ft 441 kts 173°
2026-04-15 14:42 45.21217 1.17979 33215 ft 442 kts 173°
2026-04-15 14:42 45.15151 1.18955 33190 ft 433 kts 191°
2026-04-15 14:43 45.09219 1.17535 33200 ft 433 kts 193°
2026-04-15 14:43 45.03280 1.16061 33215 ft 434 kts 194°
2026-04-15 14:44 44.97344 1.14547 33212 ft 434 kts 194°
2026-04-15 14:44 44.91445 1.13039 33214 ft 434 kts 194°
2026-04-15 14:45 44.85496 1.11520 33211 ft 435 kts 194°
2026-04-15 14:45 44.79540 1.10004 33212 ft 435 kts 194°
2026-04-15 14:46 44.73573 1.08488 33213 ft 436 kts 194°
2026-04-15 14:46 44.67606 1.06975 33219 ft 435 kts 194°
2026-04-15 14:47 44.61633 1.05464 33218 ft 436 kts 194°
2026-04-15 14:47 44.55624 1.03946 33208 ft 445 kts 194°
2026-04-15 14:48 44.49406 1.02380 33252 ft 462 kts 194°
2026-04-15 14:48 44.42974 1.00763 33542 ft 472 kts 193°
2026-04-15 14:48 44.39744 0.99952 33910 ft 472 kts 194°
2026-04-15 14:49 44.36514 0.99143 34291 ft 470 kts 194°
2026-04-15 14:49 44.33298 0.98337 34669 ft 469 kts 194°
2026-04-15 14:49 44.30087 0.97534 35024 ft 469 kts 194°
2026-04-15 14:49 44.26875 0.96732 35342 ft 469 kts 194°
2026-04-15 14:50 44.23683 0.95935 35669 ft 468 kts 194°
2026-04-15 14:50 44.20461 0.95132 35984 ft 468 kts 194°
2026-04-15 14:50 44.17260 0.94334 36299 ft 467 kts 194°
2026-04-15 14:50 44.14069 0.93540 36551 ft 467 kts 194°
2026-04-15 14:51 44.10859 0.92743 36849 ft 466 kts 194°
2026-04-15 14:51 44.07681 0.91954 37161 ft 463 kts 194°
2026-04-15 14:51 44.04516 0.91170 37236 ft 460 kts 194°
2026-04-15 14:52 43.98254 0.89619 37212 ft 457 kts 194°
2026-04-15 14:52 43.91953 0.88062 37215 ft 463 kts 194°
2026-04-15 14:53 43.85675 0.86411 37206 ft 462 kts 195°
2026-04-15 14:53 43.79365 0.84717 37211 ft 462 kts 195°
2026-04-15 14:54 43.73052 0.83031 37214 ft 462 kts 195°
2026-04-15 14:54 43.66742 0.81351 37210 ft 462 kts 195°
2026-04-15 14:55 43.60424 0.79672 37211 ft 462 kts 195°
2026-04-15 14:55 43.54103 0.77995 37211 ft 463 kts 195°
2026-04-15 14:56 43.47785 0.76323 37207 ft 463 kts 195°
2026-04-15 14:56 43.41456 0.74651 37200 ft 463 kts 195°
2026-04-15 14:57 43.35247 0.72629 37198 ft 462 kts 198°
2026-04-15 14:57 43.28992 0.70549 37201 ft 463 kts 198°
2026-04-15 14:58 43.22736 0.68474 37205 ft 463 kts 198°
2026-04-15 14:58 43.16474 0.66402 37201 ft 463 kts 198°
2026-04-15 14:59 43.10202 0.64330 37194 ft 464 kts 198°
2026-04-15 14:59 43.03932 0.62263 37178 ft 464 kts 198°
2026-04-15 15:00 42.97641 0.60193 37200 ft 465 kts 198°
2026-04-15 15:00 42.91355 0.58130 37203 ft 466 kts 198°
2026-04-15 15:01 42.85055 0.56067 37191 ft 465 kts 198°
2026-04-15 15:01 42.78753 0.54006 37187 ft 466 kts 198°
2026-04-15 15:02 42.72440 0.51948 37165 ft 466 kts 198°
2026-04-15 15:02 42.66119 0.49891 37164 ft 467 kts 198°
2026-04-15 15:03 42.59799 0.47838 37194 ft 468 kts 198°
2026-04-15 15:03 42.53474 0.45788 37194 ft 468 kts 198°
2026-04-15 15:04 42.47146 0.43742 37186 ft 467 kts 198°
2026-04-15 15:04 42.40812 0.41696 37159 ft 467 kts 198°
2026-04-15 15:05 42.34540 0.39676 37177 ft 458 kts 198°
2026-04-15 15:05 42.28397 0.37701 37161 ft 457 kts 198°
2026-04-15 15:06 42.19105 0.34722 37157 ft 457 kts 198°
2026-04-15 15:06 42.12911 0.32741 37153 ft 457 kts 198°
2026-04-15 15:07 42.06722 0.30766 37151 ft 457 kts 198°
2026-04-15 15:07 42.00523 0.28791 37154 ft 458 kts 198°
2026-04-15 15:08 41.94322 0.26819 37155 ft 459 kts 198°
2026-04-15 15:08 41.88111 0.24849 37156 ft 459 kts 198°
2026-04-15 15:09 41.81893 0.22880 37153 ft 459 kts 198°
2026-04-15 15:09 41.80881 0.22560 37155 ft 459 kts 198°
2026-04-15 15:10 41.77800 0.21586 37156 ft 459 kts 198°
2026-04-15 15:11 41.71584 0.19624 37153 ft 459 kts 198°
2026-04-15 15:11 41.65357 0.17663 37155 ft 460 kts 198°
2026-04-15 15:12 41.59132 0.15707 37156 ft 460 kts 198°
2026-04-15 15:12 41.52894 0.13749 37156 ft 461 kts 198°
2026-04-15 15:13 41.46641 0.11791 37158 ft 462 kts 198°
2026-04-15 15:13 41.40383 0.09836 37153 ft 463 kts 198°
2026-04-15 15:14 41.34113 0.07879 37141 ft 463 kts 198°
2026-04-15 15:14 41.27830 0.05924 37142 ft 464 kts 198°
2026-04-15 15:15 41.21530 0.03967 37139 ft 465 kts 198°
2026-04-15 15:15 41.15224 0.02012 37136 ft 466 kts 198°
2026-04-15 15:16 41.08911 0.00059 37140 ft 467 kts 198°
2026-04-15 15:16 41.02598 -0.01889 37148 ft 461 kts 199°
2026-04-15 15:17 40.96502 -0.03768 37143 ft 449 kts 199°
2026-04-15 15:17 40.90416 -0.05641 37139 ft 449 kts 199°
2026-04-15 15:18 40.84336 -0.07508 37148 ft 449 kts 199°
2026-04-15 15:18 40.78246 -0.09374 37162 ft 449 kts 199°
2026-04-15 15:19 40.72158 -0.11236 37171 ft 449 kts 199°
2026-04-15 15:19 40.66064 -0.13097 37165 ft 450 kts 199°
2026-04-15 15:20 40.59964 -0.14956 37144 ft 450 kts 199°
2026-04-15 15:20 40.53867 -0.16810 37144 ft 450 kts 199°
2026-04-15 15:21 40.47770 -0.18661 37145 ft 450 kts 199°
2026-04-15 15:21 40.41671 -0.20510 37149 ft 450 kts 199°
2026-04-15 15:22 40.35568 -0.22355 37158 ft 451 kts 199°
2026-04-15 15:22 40.29456 -0.24201 37173 ft 451 kts 199°
2026-04-15 15:23 40.23385 -0.26030 37148 ft 450 kts 198°
2026-04-15 15:23 40.17275 -0.27868 37159 ft 451 kts 198°
2026-04-15 15:24 40.11157 -0.29705 37152 ft 451 kts 198°
2026-04-15 15:24 40.05078 -0.31527 37155 ft 445 kts 199°
2026-04-15 15:25 39.99047 -0.33331 37148 ft 445 kts 199°
2026-04-15 15:25 39.92981 -0.35143 37151 ft 450 kts 198°
2026-04-15 15:26 39.86825 -0.36977 37140 ft 450 kts 198°
2026-04-15 15:26 39.80724 -0.38792 37139 ft 450 kts 198°
2026-04-15 15:27 39.74607 -0.40609 37135 ft 450 kts 198°
2026-04-15 15:27 39.68547 -0.42405 37124 ft 450 kts 198°
2026-04-15 15:28 39.62439 -0.44212 37128 ft 450 kts 198°
2026-04-15 15:28 39.56322 -0.46019 37129 ft 451 kts 198°
2026-04-15 15:29 39.50207 -0.47822 37127 ft 451 kts 198°
2026-04-15 15:29 39.47089 -0.48447 37119 ft 457 kts 187°
2026-04-15 15:29 39.43907 -0.48638 37128 ft 458 kts 188°
2026-04-15 15:30 39.37562 -0.49105 36344 ft 457 kts 188°
2026-04-15 15:30 39.34363 -0.49337 35409 ft 463 kts 188°
2026-04-15 15:30 39.31135 -0.49571 34575 ft 466 kts 188°
2026-04-15 15:31 39.27899 -0.49805 33845 ft 466 kts 187°
2026-04-15 15:31 39.25760 -0.49960 33398 ft 465 kts 187°
2026-04-15 15:31 39.21481 -0.50269 32388 ft 465 kts 188°
2026-04-15 15:31 39.19293 -0.50427 31797 ft 467 kts 188°
2026-04-15 15:32 39.14971 -0.50739 30570 ft 472 kts 188°
2026-04-15 15:32 39.11683 -0.50976 29650 ft 475 kts 188°
2026-04-15 15:32 39.08375 -0.51214 28702 ft 477 kts 187°
2026-04-15 15:32 39.05054 -0.51452 27647 ft 481 kts 187°
2026-04-15 15:33 39.02779 -0.51616 26884 ft 485 kts 187°
2026-04-15 15:33 38.99390 -0.51859 25728 ft 489 kts 186°
2026-04-15 15:33 38.95973 -0.52104 24528 ft 494 kts 186°
2026-04-15 15:33 38.92598 -0.52345 23734 ft 490 kts 186°
2026-04-15 15:34 38.89174 -0.52589 22991 ft 481 kts 186°
2026-04-15 15:34 38.85903 -0.52824 22027 ft 474 kts 185°
2026-04-15 15:34 38.82628 -0.53058 21024 ft 470 kts 185°
2026-04-15 15:34 38.79384 -0.53290 19905 ft 463 kts 185°
2026-04-15 15:35 38.76192 -0.53518 18662 ft 457 kts 185°
2026-04-15 15:35 38.73040 -0.53742 17462 ft 450 kts 185°
2026-04-15 15:35 38.69938 -0.53963 16293 ft 444 kts 185°
2026-04-15 15:35 38.66877 -0.54181 15168 ft 437 kts 185°
2026-04-15 15:36 38.63867 -0.54394 14096 ft 430 kts 184°
2026-04-15 15:36 38.60909 -0.54604 13049 ft 422 kts 184°
2026-04-15 15:36 38.58017 -0.54809 12463 ft 405 kts 184°
2026-04-15 15:36 38.55318 -0.55000 12514 ft 372 kts 184°
2026-04-15 15:37 38.52825 -0.55239 12391 ft 348 kts 191°
2026-04-15 15:37 38.50543 -0.55991 12047 ft 332 kts 199°
2026-04-15 15:37 38.48365 -0.56810 11713 ft 320 kts 198°
2026-04-15 15:37 38.46278 -0.57572 11522 ft 304 kts 198°
2026-04-15 15:38 38.44286 -0.58287 11370 ft 293 kts 198°
2026-04-15 15:38 38.42347 -0.58976 11224 ft 286 kts 198°
2026-04-15 15:38 38.40417 -0.59657 11085 ft 292 kts 198°
2026-04-15 15:38 38.38435 -0.60354 10952 ft 298 kts 197°
2026-04-15 15:39 38.36432 -0.61056 10809 ft 299 kts 197°
2026-04-15 15:39 38.34426 -0.61759 10644 ft 299 kts 198°
2026-04-15 15:39 38.32427 -0.62458 10510 ft 298 kts 198°
2026-04-15 15:39 38.30432 -0.63156 10365 ft 297 kts 197°
2026-04-15 15:40 38.28443 -0.63851 10226 ft 296 kts 198°
2026-04-15 15:40 38.26462 -0.64542 9969 ft 296 kts 198°
2026-04-15 15:40 38.24476 -0.65236 9649 ft 296 kts 198°
2026-04-15 15:40 38.22489 -0.65929 9320 ft 295 kts 198°
2026-04-15 15:41 38.20542 -0.66636 8978 ft 294 kts 198°
2026-04-15 15:41 38.18549 -0.67367 8641 ft 294 kts 198°
2026-04-15 15:41 38.16618 -0.68074 8353 ft 292 kts 198°
2026-04-15 15:41 38.14722 -0.68929 8021 ft 287 kts 213°
2026-04-15 15:42 38.13219 -0.70544 7680 ft 282 kts 228°
2026-04-15 15:42 38.11825 -0.72292 7343 ft 282 kts 227°
2026-04-15 15:42 38.10409 -0.74002 6942 ft 279 kts 225°
2026-04-15 15:42 38.09006 -0.75678 6611 ft 274 kts 226°
2026-04-15 15:43 38.07655 -0.77334 6290 ft 268 kts 227°
2026-04-15 15:43 38.06335 -0.78984 5979 ft 264 kts 227°
2026-04-15 15:43 38.05048 -0.80615 5684 ft 259 kts 227°
2026-04-15 15:43 38.03800 -0.82209 5513 ft 248 kts 227°
2026-04-15 15:44 38.02625 -0.83716 5432 ft 233 kts 227°
2026-04-15 15:44 38.01514 -0.85146 5284 ft 223 kts 227°
2026-04-15 15:44 38.00452 -0.86517 5132 ft 212 kts 227°
2026-04-15 15:44 37.99448 -0.87811 5024 ft 198 kts 227°
2026-04-15 15:45 37.98512 -0.89018 4900 ft 187 kts 227°
2026-04-15 15:45 37.97625 -0.90162 4773 ft 176 kts 227°
2026-04-15 15:45 37.96779 -0.91252 4638 ft 175 kts 227°
2026-04-15 15:45 37.95914 -0.92368 4583 ft 181 kts 226°
2026-04-15 15:46 37.95036 -0.93502 4332 ft 183 kts 226°
2026-04-15 15:46 37.94145 -0.94650 4134 ft 183 kts 226°
2026-04-15 15:46 37.93259 -0.95799 3905 ft 182 kts 226°
2026-04-15 15:46 37.92371 -0.96940 3682 ft 182 kts 225°
2026-04-15 15:47 37.91486 -0.98085 3459 ft 181 kts 225°
2026-04-15 15:47 37.90602 -0.99226 3215 ft 182 kts 224°
2026-04-15 15:47 37.89719 -1.00364 2996 ft 180 kts 224°
2026-04-15 15:47 37.88846 -1.01488 2768 ft 177 kts 223°
2026-04-15 15:48 37.87984 -1.02600 2517 ft 176 kts 223°
2026-04-15 15:48 37.87135 -1.03695 2295 ft 173 kts 224°
2026-04-15 15:48 37.86318 -1.04748 2088 ft 162 kts 224°
2026-04-15 15:48 37.85569 -1.05716 1909 ft 144 kts 224°
2026-04-15 15:49 37.84895 -1.06579 1675 ft 133 kts 224°
2026-04-15 15:49 37.84256 -1.07385 1484 ft 128 kts 224°
2026-04-15 15:49 37.83625 -1.08187 1358 ft 131 kts 225°
2026-04-15 15:49 37.82982 -1.09033 1204 ft 135 kts 225°
2026-04-15 15:50 37.82330 -1.09874 993 ft 133 kts 224°
2026-04-15 15:50 37.81692 -1.10695 808 ft 129 kts 226°
2026-04-15 15:50 37.81070 -1.11496 658 ft 125 kts 225°
2026-04-15 15:50 37.80564 -1.12150 650 ft 71 kts 225°
2026-04-15 15:51 37.80319 -1.12464 651 ft 49 kts 226°
2026-04-15 15:51 37.80061 -1.12796 645 ft 51 kts 226°
2026-04-15 15:51 37.79903 -1.13135 651 ft 21 kts 256°
2026-04-15 15:51 37.79923 -1.13246 656 ft 14 kts 344°
2026-04-15 15:52 37.80013 -1.13170 653 ft 18 kts 44°
2026-04-15 15:52 37.80096 -1.13086 650 ft 11 kts
2026-04-15 15:52 37.80161 -1.13139 651 ft 2 kts 316°
2026-04-15 15:52 37.80165 -1.13143 650 ft 2 kts 323°
2026-04-15 15:53 37.80188 -1.13158 651 ft 5 kts 343°
2026-04-15 15:53 37.80232 -1.13137 649 ft 9 kts 42°
2026-04-15 15:53 37.80265 -1.13100 651 ft 1 kts 20°
2026-04-15 15:53 37.80290 -1.13113 650 ft 9 kts 320°
2026-04-15 15:54 37.80319 -1.13150 649 ft 2 kts 315°
2026-04-15 15:54 37.80322 -1.13154 649 ft 0 kts 316°